Weather Roundup
Issued by NWS Chicago, IL

Home | Current Version | Previous Version | Graphics & Text | Print | Product List | Glossary On
Versions: 1 2 3 4 5 6 7 8 9 10 11 12 13 14 15 16 17 18 19 20 21 22 23 24 25 26 27 28 29 30 31 32 33 34 35 36 37 38 39 40 41 42 43 44 45 46 47 48 49 50
000
NZUS59 KLOT 200112
HRRLOT

CHICAGO AREA WEATHER ROUNDUP
NATIONAL WEATHER SERVICE CHICAGO/ROMEOVILLE IL
700 PM CST THU JAN 19 2017

NOTE: "FAIR" INDICATES FEW OR NO CLOUDS BELOW 12,000 FEET WITH NO
SIGNIFICANT WEATHER AND/OR OBSTRUCTIONS TO VISIBILITY.

* THESE STATIONS ARE NOT UNDER NWS QUALITY CONTROL. THEY ALSO MAY NOT
  REPORT WEATHER SUCH AS PRECIPITATION OR FOG.

ILZ005-006-012>014-019>023-200200-
NORTHEAST ILLINOIS

CITY           SKY/WX    TMP DP  RH WIND       PRES   REMARKS
OHARE          LGT RAIN  39  37  92 SE9       29.83S FOG
MIDWAY         LGT RAIN  38  36  92 SE7       29.84S FOG
AURORA         LGT RAIN  40  37  89 E9        29.81S FOG
LANSING*       LGT RAIN  38  38 100 SE5       29.84R
JOLIET*        RAIN      40  39  97 E7        29.81F
WAUKEGAN       LGT RAIN  37  36  96 E8        29.82F FOG
DUPAGE AIRPORT LGT RAIN  39  35  86 E8        29.81R FOG
WHEELING       LGT RAIN  38  36  92 E3        29.83F FOG
KANKAKEE*      LGT RAIN  39  38  97 E10       29.80F
MORRIS*        LGT RAIN  38  37  96 E7        29.80S
LEWIS AIRPORT* LGT RAIN  38  38 100 E12       29.80F
NORTHERLY ISL    N/A     35  33  92 SE2         N/A
$$

WIZ051-052-058>065-066-070>072-200200-
SOUTHEAST WISCONSIN

CITY           SKY/WX    TMP DP  RH WIND       PRES   REMARKS
MILWAUKEE      LGT RAIN  36  35  96 E5        29.84F VSB 1/8
KENOSHA*       LGT RAIN  37  35  92 E10       29.83F FOG
RACINE*        LGT RAIN  36  35  96 SE7       29.85F FOG
WAUKESHA       LGT RAIN  34  34 100 E7        29.84F WCI  28
WEST BEND      LGT RAIN  32  32 100 NE3       29.84F
$$

INZ001>003-010>013-019-020-200200-
NORTHWEST INDIANA

CITY           SKY/WX    TMP DP  RH WIND       PRES   REMARKS
GARY*          LGT RAIN  39  37  93 SE7       29.85S
MICHIGAN CITY* NOT AVBL
RENSSELAER*    NOT AVBL
VALPARAISO     LGT RAIN  39  37  92 E12       29.84F FOG
$$

LMZ740>746-200200-
SOUTHERN LAKE MICHIGAN

STATION/POSITION TIME  SKY/WX   TEMP WIND        PRES    VSBY
                                AIR  DIR/SP/G
                 (UTC)          (F)  (DEG/KT/KT) (MB)    (MI)
HARRISON CRIB    0040            38  100/ 12/ 13   N/A
BURNHAM HARBOR   0100            35  140/  2/  6   N/A
CALUMET HARBOR   0030            35   80/  5/  7 1010.0F
BURNS HARBOR     0040            39  110/ 12/ 15 1011.5F
MICHIGAN CITY    0040            39   90/  6/  8   N/A
$$

ABBREVIATIONS USED IN REMARKS
   TC - TEMPERATURE IN CELSIUS
  WCI - WIND CHILL INDEX
   HX - HEAT INDEX
  VSB - VISIBILITY
$$




USA.gov is the U.S. government's official web portal to all federal, state and local government web resources and services.